Starlink 6336

operational
NORAD ID: 56788 Int'l Des: 2023-078 Owner: SPXS Country: US Constellation: starlink
LEOCIRCULAR

Über Starlink 6336

Beschreibung wird geladen...

Live-Position

3D-Globus wird geladen...

Nächste Überflüge

Höhenverlauf

Altitude vs Time

uPlot chart will show altitude changes over time

Zweizeiliger Elementsatz

1 56788U 23078X 26034.44767189 -.00002465 00000-0 -19883-3 0 9996
2 56788 69.9994 50.8235 0003160 269.8409 90.2388 14.98330814148041
Epoch: 3. Feb. 2026 • Age: 11 hours

Aktueller Status

Höhe 594.0 km
Geschwindigkeit 7.56 km/s
Subsatellitenpunkt -64.60°S, 177°W
Startdatum 31. Mai 2023
Alter 2.6 years
Typ internet

Technische Details

Klassifizierung Payload
Masse 305.00 kg
Trockenmasse 290.00 kg
Gesamtmasse 305.00 kg
Länge 0.20 m
Durchmesser 2.80 m
Spannweite 9.00 m
Form Box + pan
Hersteller SPXS
Bus-Typ Starlink
Phasenstatus In Orbit
Besitzer/Staat SPXS/US

Große Konstellationen

Loading constellations...